Regional Weather Roundup
Issued by NWS

Home | Current Version | Previous Version | Graphics & Text | Print | Product List | Glossary On
Versions: 1 2 3 4 5 6 7 8 9 10 11 12 13 14 15 16 17 18 19 20 21 22 23 24 25 26 27 28 29 30 31 32 33 34 35 36 37 38 39 40 41 42 43 44 45 46 47 48 49 50
000
ASUS43 KBIS 200520
RWRND

NORTH DAKOTA REGIONAL WEATHER ROUNDUP
NATIONAL WEATHER SERVICE BISMARCK ND
1200 AM CDT SAT SEP 20 2014

NOTE: "FAIR" INDICATES FEW OR NO CLOUDS BELOW 12,000 FEET WITH NO
SIGNIFICANT WEATHER AND/OR OBSTRUCTIONS TO VISIBILITY.


NDZ001>003-009>011-017-200600-
NORTHWEST NORTH DAKOTA

CITY           SKY/WX    TMP DP  RH WIND       PRES   REMARKS
WILLISTON      PTCLDY    54  48  80 CALM      29.83S
MINOT          CLEAR     58  52  80 SW8       29.79R
MINOT AFB      PTCLDY    75  55  50 NW22      29.62R
$$

NDZ018>021-031>035-040>046-200600-
SOUTHWEST NORTH DAKOTA

CITY           SKY/WX    TMP DP  RH WIND       PRES   REMARKS
BISMARCK       PTCLDY    62  53  72 NW6       29.82R
DICKINSON      CLEAR     53  46  77 W3        29.86R
GARRISON         N/A     54  51  90 NW7       29.81S
HETTINGER ARPT CLEAR     49  44  83 NW6       29.90R
$$

NDZ004>008-012>016-024-026-027-054-200600-
NORTHEAST NORTH DAKOTA

CITY           SKY/WX    TMP DP  RH WIND       PRES   REMARKS
GRAND FORKS    CLOUDY    61  54  77 NW9       29.69R
GRND FRKS AFB  MOCLDY    59  55  88 N10       29.72R
DEVILS LAKE    CLEAR     57  50  77 N5        29.75S
$$

NDZ022-023-025-028>030-036>039-047>053-200600-
SOUTHEAST NORTH DAKOTA

CITY           SKY/WX    TMP DP  RH WIND       PRES   REMARKS
FARGO          MOCLDY    64  58  80 NW10      29.68R
JAMESTOWN      PTCLDY    61  57  87 NW9       29.75R
$$



USA.gov is the U.S. government's official web portal to all federal, state and local government web resources and services.